Location: Columbia
(38.9520°N, 92.3340°W)
Time: 14:09:07
(UTC-05:00)

SJ-11-01 - Visible Passes

Search period start: 24 June 2017 00:00
Search period end: 04 July 2017 00:00
Orbit: 686 x 700 km, 98.1° (Epoch: 23 June)

Date Brightness Start Highest point End Pass type
(mag) Time Alt. Az. Time Alt. Az. Time Alt. Az.
24 Jun 6.6 22:26:17 10° SW 22:29:38 19° W 22:32:59 10° NW visible
25 Jun 4.5 21:27:00 10° S 21:31:44 76° WSW 21:36:31 10° NNW visible
26 Jun 6.1 22:07:42 10° SSW 22:11:47 28° W 22:15:53 10° NW visible
27 Jun 4.4 21:09:20 10° SSE 21:14:02 71° ENE 21:18:47 10° N visible
27 Jun 7.1 22:50:55 10° WSW 22:52:04 11° W 22:53:12 10° WNW visible
28 Jun 5.4 21:49:28 10° S 21:53:58 43° W 21:58:31 10° NNW visible
29 Jun 6.8 22:31:06 10° SW 22:34:10 17° W 22:37:14 10° NW visible
30 Jun 4.6 21:31:31 10° S 21:36:14 68° WSW 21:40:59 10° NNW visible
01 Jul 6.2 22:12:22 10° SSW 22:16:18 26° W 22:20:16 10° NW visible
02 Jul 4.3 21:13:47 10° SSE 21:18:31 79° ENE 21:23:17 10° N visible
03 Jul 5.6 21:54:04 10° SSW 21:58:29 39° W 22:02:57 10° NNW visible
